This is the latest recevied weather packets stored in our database for station/object KA1BMF-13. If no packets are shown the sender has not sent any weather packets the latest 10 day(s).
| Time | Temp. | Humidity | Pressure | Rain* | Wind** | Luminosity | Snow |
|---|---|---|---|---|---|---|---|
| 1788140117 | 71° F | 94% | 763.4 mmHg | 0 in | - | 0 W/m² | - |
| 1788139520 | 72° F | 94% | 763.4 mmHg | 0 in | - | 0 W/m² | - |
| 1788138920 | 72° F | 93% | 763.3 mmHg | 0 in | - | 0 W/m² | - |
| 1788138317 | 72° F | 93% | 763.5 mmHg | 0 in | - | 0 W/m² | - |
| 1788137718 | 72° F | 92% | 763.4 mmHg | 0 in | - | 0 W/m² | - |
| 1788137117 | 72° F | 91% | 763.3 mmHg | 0 in | - | 0 W/m² | - |
| 1788136518 | 72° F | 90% | 763.3 mmHg | 0 in | - | 0 W/m² | - |
| 1788135918 | 72° F | 89% | 763.3 mmHg | 0 in | - | 0 W/m² | - |
| 1788135319 | 73° F | 89% | 763.3 mmHg | 0 in | - | 0 W/m² | - |
| 1788134719 | 73° F | 87% | 763.2 mmHg | 0 in | - | 0 W/m² | - |
| 1788134118 | 73° F | 86% | 763 mmHg | 0 in | - | 0 W/m² | - |
| 1788133519 | 74° F | 85% | 763 mmHg | 0 in | - | 0 W/m² | - |
| 1788132916 | 74° F | 85% | 763 mmHg | 0 in | - | 0 W/m² | - |
| 1788132319 | 74° F | 84% | 763 mmHg | 0 in | - | 0 W/m² | - |
| 1788131719 | 74° F | 83% | 763 mmHg | 0 in | - | 1 W/m² | - |
| 1788131120 | 74° F | 83% | 763 mmHg | 0 in | - | 2 W/m² | - |
| 1788130516 | 75° F | 82% | 763.1 mmHg | 0 in | - | 5 W/m² | - |
| 1788129917 | 75° F | 81% | 763 mmHg | 0 in | - | 9 W/m² | - |
| 1788129317 | 75° F | 80% | 763 mmHg | 0 in | - | 14 W/m² | - |
| 1788128720 | 75° F | 80% | 763 mmHg | 0 in | - | 32 W/m² | - |
| 1788128118 | 75° F | 79% | 763.1 mmHg | 0 in | - | 35 W/m² | - |
| 1788127518 | 75° F | 79% | 763.1 mmHg | 0 in | - | 76 W/m² | - |
| 1788126918 | 76° F | 79% | 763 mmHg | 0 in | - | 55 W/m² | - |
| 1788126318 | 76° F | 78% | 763.1 mmHg | 0 in | - | 48 W/m² | - |
| 1788125718 | 76° F | 77% | 763 mmHg | 0 in | - | 56 W/m² | - |
* Rain latest hour (hover to see other rain measurements)
** Current wind speed in m/s (hover to see current wind gust speed)